English version Home page |
Updated on March 26, 1999 |
|
軌道要素The following improved orbital elements by Kenji Muraoka, are from 553 observations 1998 May 26 to 1999 Feb. 14, perturbations by 9 Planets, Moon and 5 minor planets were taken into account. The mean residual is +/- 0.60 arc seconds. Epoch = 1998 July 6.0 TT JDT = 2451000.5 T = 1998 July 17.44629 +/- 0.00002 (m.e.) TT Peri. = 99.45875 +/- 0.00014 Node = 211.11919 +/- 0.00014 (2000.0) Incl. = 9.92700 +/- 0.00002 q = 0.9635471 +/- 0.0000001 AU e = 0.9866924 +/- 0.0000040 1/a = +0.0138110 +/- 0.0000041 1/AU ( P = 616 years )
|
星図
|
光度変化m1 = 15.5 + 5 logΔ + 25.0 log r [ , 0] ( 〜1998年 7月17日) m1 = 14.5 + 5 logΔ - 14.5 log r [ 0,40] (1998年 7月17日〜1998年 8月26日) m1 = 14.0 + 5 logΔ - 2.5 log r [40,70] (1998年 8月26日〜1998年 9月25日) m1 = 12.7 + 5 logΔ + 5.0 log r [70, ] (1998年 9月25日〜 ) ※ 灰色の曲線は、m1 = 15.5 + 5 logΔ + 25.0 log r の光度曲線です。
|
軌道要素は村岡健治氏の計算によるものです。
|